Regional Weather Roundup
Issued by NWS

Home | Current Version | Previous Version | Graphics & Text | Print | Product List | Glossary On
Versions: 1 2 3 4 5 6 7 8 9 10 11 12 13 14 15 16 17 18 19 20 21 22 23 24 25 26 27 28 29 30 31 32 33 34 35 36 37 38 39 40 41 42 43 44 45 46 47 48 49 50
000
ASUS45 KBOU 041110
RWRCO

WEATHER ROUNDUP FOR COLORADO
NATIONAL WEATHER SERVICE DENVER/BOULDER CO
500 AM MDT SAT JUL 04 2015

NOTE: "FAIR" INDICATES FEW OR NO CLOUDS BELOW 12000 FEET WITH NO
SIGNIFICANT WEATHER AND/OR OBSTRUCTIONS TO VISIBILITY.

COZ001>005-013-030-031-041200-
...NORTHWEST COLORADO...

CITY           SKY/WX    TMP DP  RH WIND       PRES   REMARKS
CRAIG          PTCLDY    51  45  79 CALM      30.12R
HAYDEN         PTCLDY    61  39  44 E9        30.14S
MEEKER         PTCLDY    57  47  69 NE6       30.15S
MOUNT WERNER   NOT AVBL
STEAMBOAT SPGS PTCLDY    50  42  72 CALM      30.18R
WALDEN         CLEAR     46  41  81 SE8       30.25S
$$

COZ006>008-011-041200-
...WEST CENTRAL VALLEYS...

CITY           SKY/WX    TMP DP  RH WIND       PRES   REMARKS
GRAND JUNCTION CLOUDY    73  49  42 E16       30.03S
MONTROSE       CLOUDY    67  47  48 S6        30.16R
EAGLE          PTCLDY    57  48  72 E5        30.22R
RIFLE          PTCLDY    62  55  77 CALM      30.12R
DELTA          CLOUDY    71  49  46 NE7       30.12R
NUCLA          CLOUDY    63  46  55 E9        30.21R
$$

COZ017>023-064>068-041200-
...SOUTHWEST COLORADO...

CITY           SKY/WX    TMP DP  RH WIND       PRES   REMARKS
DURANGO        PTCLDY    52  46  80 CALM      30.24R
CORTEZ         CLEAR     59  50  72 NE6       30.18R
PAGOSA SPRINGS PTCLDY    50  48  93 CALM      30.31R
TELLURIDE      CLOUDY    54  44  69 CALM      30.41S
WOLF CREEK PAS NOT AVBL
$$

COZ009-010-012-014-032>034-037-058>063-041200-
...CENTRAL COLORADO...

CITY           SKY/WX    TMP DP  RH WIND       PRES   REMARKS
ASPEN          PTCLDY    54  43  66 S7        30.27R
BUENA VISTA    PTCLDY    51  48  90 NW6       30.30S
COPPER MTN     CLEAR     52  39  62 S16       30.59R
BERTHOUD PASS  FAIR      46  36  66 NW23G38   30.59F
COTTONWOOD PAS NOT AVBL
GUNNISON       MOCLDY    54  46  76 CALM      30.35R
KREMMLING      CLEAR     52  41  66 CALM      30.26S
LEADVILLE      PTCLDY    43  42  97 NE7       30.43R
MONARCH PASS   CLOUDY    46  36  66 W22       30.67S
SALIDA         PTCLDY    59  50  72 NW9       30.33R
SUNLIGHT       PTCLDY    54  41  62 CALM      30.51R
WILKERSON PASS PTCLDY    46  41  81 W13G18    30.53S
$$

COZ069>075-041200-
...SAN LUIS VALLEY/SANGRE DE CRISTO MOUNTAINS...

CITY           SKY/WX    TMP DP  RH WIND       PRES   REMARKS
ALAMOSA        PTCLDY    49  46  90 W5        30.30R
LA VETA PASS   PTCLDY    48  43  81 MISG      30.42F
SAGUACHE       MOCLDY    52  46  82 NW9       30.31F
$$

COZ035-036-038>040-041200-
...NORTHERN COLORADO FRONT RANGE...

CITY           SKY/WX    TMP DP  RH WIND       PRES   REMARKS
DENVER INTL AP PTCLDY    67  49  52 S13       30.01F
DMNS CITY PARK   N/A     64  51  63 SW2       30.01S
AURORA         PTCLDY    63  51  64 S12       30.03F
FRONT RANGE AP CLEAR     66  52  59 S14       30.02F
ERIE MUNI ARPT CLEAR     58  55  89 CALM      30.01R
BOULDER MUN AP CLEAR     63  54  72 CALM      30.01S
CENTENNIAL     PTCLDY    63  49  60 S8        30.05F
BROOMFIELD     CLEAR     63  52  67 W3        30.03F
FORT COLLINS   PTCLDY    61  57  88 NW7       30.03S
LONGMONT       PTCLDY    62  55  80 CALM      30.03R
$$

COZ041-046-047-076>085-087-088-041200-
...PIKES PEAK/PALMER DIVIDE AND SOUTHERN FOOTHILLS...

CITY           SKY/WX    TMP DP  RH WIND       PRES   REMARKS
COLO. SPRINGS  PTCLDY    60  49  66 NE6       30.12S
A. F. ACADEMY  CLEAR     54  51  89 VRB7      30.12F
ELLICOTT       CLEAR    N/A N/A N/A SE8       30.11F
FALCON         CLEAR     56  46  70 CALM      30.17F
FORT CARSON    CLEAR     55  51  88 NW7       30.09S
LIMON          FOG       54  54 100 CALM      30.07F VSB 1/4
MONUMENT HILL  NOT AVBL
TRINIDAD       CLEAR     61  54  77 SW14      30.12S
$$

COZ042>045-048>051-090-091-041200-
...NORTHEAST COLORADO...

CITY           SKY/WX    TMP DP  RH WIND       PRES   REMARKS
GREELEY ARPT   MOCLDY    63  59  88 CALM      30.00S
AKRON          PTCLDY    63  60  90 S12       30.01F
BURLINGTON     CLEAR     61  58  90 SE13      30.02F
WRAY           CLEAR     65  60  82 SE6       30.00S
STERLING       PTCLDY    64  61  88 SE3         N/A
HOLYOKE        CLEAR     61  57  88 S6        30.00S
FORT MORGAN    PTCLDY    60  57  89 CALM      30.00S
$$

COZ086-089-092>099-041200-
...SOUTHEAST COLORADO...

CITY           SKY/WX    TMP DP  RH WIND       PRES   REMARKS
PUEBLO         PTCLDY    59  55  87 E3        30.05R
LA JUNTA       CLEAR     62  55  77 W10       30.01S
LAMAR          CLEAR     63  58  83 E3        29.98S
SPRINGFIELD      N/A     62  59  90 SW7       30.04F
$$



USA.gov is the U.S. government's official web portal to all federal, state and local government web resources and services.